Regional Weather Roundup
Issued by NWS

Home | Current Version | Previous Version | Graphics & Text | Print | Product List | Glossary On
Versions: 1 2 3 4 5 6 7 8 9 10 11 12 13 14 15 16 17 18 19 20 21 22 23 24 25 26 27 28 29 30 31 32 33 34 35 36 37 38 39 40 41 42 43 44 45 46 47 48 49 50
255
ASUS43 KLMK 301410
RWRKY
KENTUCKY REGIONAL WEATHER ROUNDUP
NATIONAL WEATHER SERVICE LOUISVILLE KY
1000 AM EDT SUN APR 30 2017

NOTE "FAIR" INDICATES FEW OR NO CLOUDS BELOW 12,000 FEET
WITH NO SIGNIFICANT WEATHER AND/OR OBSTRUCTIONS TO VISIBILITY.

KYZ001>023-026-027-061>063-070>075-301500-
WESTERN AND SOUTH CENTRAL KENTUCKY

CITY           SKY/WX    TMP DP  RH WIND       PRES   REMARKS
PADUCAH        LGT RAIN  65  62  90 CALM      29.82F FOG
HENDERSON        N/A    N/A N/A N/A MISG        N/A
OWENSBORO      CLOUDY    67  64  90 SE7       29.89F
HOPKINSVILLE   CLOUDY    69  64  83 E6        29.89F
BOWLING GREEN  CLOUDY    75  68  78 S10       29.96S
GLASGOW        CLOUDY    72  65  77 S8        29.98R
$$

KYZ024-025-028>034-038-045-046-053-301500-
NORTH CENTRAL KENTUCKY

CITY           SKY/WX    TMP DP  RH WIND       PRES   REMARKS
LOUISVILLE/SDF CLOUDY    76  66  71 SW17G24   29.93R
LOUISVILLE/LOU CLOUDY    76  67  73 S21G29    29.93R
FORT KNOX      CLOUDY    70  68  94 S8        29.93S
$$

KYZ035>037-039>044-047>052-055>060-089>105-301500-
NORTHEAST KENTUCKY

CITY           SKY/WX    TMP DP  RH WIND       PRES   REMARKS
LEXINGTON      MOSUNNY   77  64  64 S17G26    29.98R
COVINGTON      CLOUDY    76  67  73 S17G25    29.92S
FRANKFORT      CLOUDY    77  63  61 S15G28    29.95R
$$

KYZ054-064>069-076>088-106>120-301500-
SOUTHEAST KENTUCKY

CITY           SKY/WX    TMP DP  RH WIND       PRES   REMARKS
JACKSON        CLOUDY    77  63  61 VRB3      30.04S
LONDON         CLOUDY    76  61  59 S10       30.04R
SOMERSET       PTSUNNY   73  63  68 SW9G17    30.03R
MIDDLESBORO    CLOUDY    76  64  66 CALM      30.06R
MONTICELLO     MOSUNNY   77  67  71 VRB7      30.03R
$$





USA.gov is the U.S. government's official web portal to all federal, state and local government web resources and services.